Tracking 27126 objects as of 30-Mar-2023
HD Live streaming from Space Station
objects crossing your sky now

TIANZHI 1

Track TIANZHI 1 now!
10-day predictions


NORAD ID: 43710
Int'l Code: 2018-094A
Perigee: 474.9 km
Apogee: 494.5 km
Inclination: 97.4 °
Period: 94.2 minutes
Semi major axis: 6855 km
RCS: Unknown
Launch date: November 19, 2018
Source: People's Republic of China (PRC)
Launch site: Jiuquan Satellite Launch Center, China (JSC)
Your satellite tracking list
Your tracking list is empty




NASA's NSSDC Master Catalog

Two Line Element Set (TLE):
1 43710U 18094A   23089.64526444  .00012758  00000-0  44821-3 0  9999
2 43710  97.3963 101.6265 0014291  67.8629   1.3021 15.29424247242487
Source of the keplerian elements: AFSPC